Location: Pisa
(43.7170°N, 10.3830°E)
Time: 07:33:49
(UTC+02:00)

ISS - Pass Details

Date: 18 May 2021
Orbit: 417 x 422 km, 51.6° (Epoch: 17 June)

Event Time Altitude Azimuth Distance (km) Brightness Sun altitude
Rises 21:14:37 0° 237° (WSW) 2,352 0.4 -6.1°
Reaches altitude 10° 21:16:42 10° 237° (WSW) 1,492 -0.7 -6.4°
Maximum altitude 21:20:03 89° 322° (NW) 423 -3.7 -6.9°
Drops below altitude 10° 21:23:26 10° 58° (ENE) 1,503 -1.2 -7.4°
Sets 21:25:32 0° 58° (ENE) 2,371 -0.2 -7.7°
